Temp
14 14 14 14 14 14 14 14 13 13 13 13 13 13 13 13 13 13 13 12 12 11 11 12 12 12 12 13 13 12 11 10 10 11 12 11 10 10 9 8 8 8
14 14 14 14 14 14 13 13 13 13 13 13 13 13 13 12 12 12 12 11 11 11 11 11 11 11 12 12 13 12 11 10 10 11 11 11 11 10 9 8 8 8
14 14 14 14 14 13 13 13 13 13 13 13 13 12 12 12 12 11 11 11 10 10 10 10 10 11 11 11 12 12 12 11 11 11 11 11 11 10 8 8 8 8
14 14 14 14 14 13 13 13 13 12 12 12 12 12 11 11 11 11 10 10 10 10 9 9 9 10 11 11 11 12 12 11 11 11 10 10 10 9 8 8 8 8
14 14 13 13 13 13 13 12 12 12 12 12 11 11 11 11 10 10 10 10 10 10 9 9 9 10 10 10 11 11 11 11 11 10 10 9 9 9 8 8 8 8
13 13 13 13 13 13 12 12 12 12 12 11 11 11 11 10 10 10 10 10 10 10 9 9 9 9 10 10 10 10 10 10 10 9 9 9 8 8 8 8 8 8
13 13 13 13 12 12 12 12 12 12 11 11 11 10 10 10 10 10 10 10 10 9 9 9 9 9 9 10 9 9 9 9 9 9 8 8 8 8 7 7 7 7
12 12 12 12 12 12 12 12 12 11 11 11 10 10 10 10 9 9 10 10 9 9 9 9 9 9 9 9 9 9 9 9 9 8 8 8 8 7 7 7 7 7
12 12 12 12 12 12 12 12 12 11 11 10 10 10 10 9 9 9 9 9 9 9 9 9 9 9 9 9 9 8 8 8 8 8 8 8 8 8 7 7 7 6
12 12 12 11 11 11 12 11 11 11 10 10 10 9 9 9 9 9 9 9 9 9 8 8 8 8 8 8 8 8 8 8 8 8 8 8 8 8 7 7 6 6
12 12 11 11 11 11 11 11 11 11 10 10 10 9 9 9 8 8 8 8 8 8 8 8 8 8 8 8 8 8 7 7 7 7 8 8 8 7 7 7 6 6
13 13 13 12 12 11 11 11 11 10 10 10 9 9 9 8 8 8 8 8 7 7 8 8 8 8 8 8 8 7 7 7 7 7 7 7 7 7 6 6 6 6
14 15 16 16 15 13 12 11 11 10 10 10 9 9 9 8 8 8 8 7 7 7 7 7 7 7 7 7 7 7 6 6 6 6 6 6 6 6 6 6 5 5
15 15 16 16 16 15 13 11 11 10 10 10 9 9 8 8 8 8 7 7 7 7 7 7 7 7 7 7 7 6 6 6 5 5 5 5 5 5 5 5 5 5
16 15 14 13 13 12 12 11 10 10 9 9 9 9 8 8 8 7 7 7 6 6 6 6 7 6 6 6 6 6 6 5 5 5 4 4 4 4 4 4 4 4
15 13 12 11 10 10 10 9 9 9 9 9 9 8 8 8 7 7 7 6 6 6 6 6 6 6 6 6 6 6 6 5 5 4 4 4 3 3 3 3 3 3
13 12 11 10 10 9 9 9 9 9 8 8 8 8 8 7 7 6 6 6 6 6 5 6 6 6 6 6 5 5 5 5 4 4 4 3 3 3 3 3 2 2
13 12 11 10 10 10 9 9 8 8 8 8 8 8 7 7 6 6 6 5 5 5 5 5 5 5 5 5 5 5 4 4 4 4 3 3 2 3 3 2 2 1
12 10 10 10 10 10 9 8 8 8 8 7 7 7 7 6 6 6 5 5 5 5 5 5 5 5 5 5 5 4 4 3 3 3 2 2 2 2 2 2 1 0
11 10 9 9 9 8 8 7 7 7 7 7 7 6 6 6 5 5 5 5 5 4 4 4 5 5 4 4 4 4 3 2 2 2 2 2 2 2 1 1 1 0
10 9 9 8 8 7 7 7 7 6 6 6 6 6 6 6 5 5 5 4 4 4 4 4 4 4 4 4 3 3 2 1 1 1 1 1 1 1 1 1 0 -0
9 9 8 8 7 7 6 6 6 6 6 5 5 5 5 5 5 4 4 4 4 4 3 3 4 4 4 3 2 2 1 1 0 1 1 1 0 0 0 0 -0 -0
9 8 8 7 7 6 6 6 6 6 6 5 5 4 4 4 4 4 4 4 3 3 3 3 3 3 3 2 2 1 0 0 0 0 0 0 0 -0 -0 -0 -1 -0
9 8 8 7 6 6 6 6 6 6 5 5 5 4 4 4 4 3 3 3 3 3 3 3 3 3 2 2 1 1 -0 -0 -0 -0 -0 -0 -1 -1 -1 -1 -1 -1
9 8 8 7 6 6 6 6 6 5 5 5 4 4 4 4 3 2 2 2 2 2 2 2 2 2 1 1 1 0 -0 -0 -0 -0 -1 -1 -1 -2 -2 -2 -1 -1
9 8 8 7 7 6 6 5 5 5 4 4 3 3 3 2 2 2 1 1 1 1 1 1 1 1 1 0 0 -0 -0 -0 -0 -1 -1 -2 -2 -2 -3 -3 -2 -2
Height
796 797 797 798 798 799 800 801 802 803 803 804 804 805 805 806 808 809 809 809 810 811 812 813 813 813 813 813 815 816 817 818 819 819 819 819 822 824 826 828 829 830
793 794 795 795 796 796 798 799 800 800 800 801 801 802 803 804 805 806 806 806 807 807 808 809 810 810 810 810 811 813 814 815 816 817 816 815 817 820 821 823 825 826
791 792 792 792 793 794 795 796 797 797 798 798 799 799 800 801 802 803 804 804 804 804 805 806 807 807 808 808 808 809 810 810 812 813 813 812 814 815 817 819 821 822
788 789 790 791 791 792 793 794 794 794 795 795 795 797 798 798 799 800 801 802 802 802 803 803 803 804 805 806 806 806 806 807 809 810 810 810 811 812 814 816 818 818
786 787 788 789 790 791 791 791 790 791 791 792 792 794 794 795 796 796 797 799 799 800 800 800 800 801 802 803 803 803 804 804 806 806 806 807 808 809 810 812 814 815
784 786 786 787 788 788 788 787 787 788 788 789 790 791 791 792 792 793 794 795 796 797 797 797 797 798 798 799 800 800 800 801 802 803 803 804 805 806 808 809 810 810
782 784 784 785 786 786 785 785 785 785 785 787 787 787 788 789 789 790 791 792 794 794 794 794 794 795 796 796 796 796 797 797 798 799 800 801 802 804 805 806 807 807
781 782 782 783 783 782 782 782 782 783 783 784 784 784 786 786 786 787 788 790 791 791 791 791 791 791 792 793 793 793 793 794 795 796 797 798 799 800 802 803 804 804
778 779 779 780 779 778 778 778 779 780 781 782 782 782 783 784 784 785 786 787 788 788 788 788 788 789 789 790 790 790 790 791 792 793 794 795 796 796 798 800 801 802
775 775 776 776 775 775 775 775 777 778 779 780 780 780 781 781 782 782 783 784 784 785 785 786 786 786 786 787 786 787 787 788 789 790 790 791 792 793 795 796 798 799
771 772 772 772 771 771 771 772 774 775 776 777 777 778 778 778 779 779 780 781 781 782 782 783 783 783 783 784 784 784 784 785 785 786 787 788 789 790 792 793 794 795
766 766 767 767 768 768 768 769 771 772 773 773 774 775 775 775 775 776 776 777 778 779 780 780 781 781 781 781 781 781 782 782 783 783 784 785 786 787 789 790 791 792
762 761 761 761 762 763 765 766 767 768 768 769 771 772 772 772 772 772 772 773 774 775 776 777 778 778 778 778 779 779 779 779 780 781 782 783 784 784 786 787 788 790
758 758 757 757 757 758 759 761 762 763 764 766 768 768 768 768 769 769 769 770 771 771 772 774 774 774 775 776 776 777 777 777 778 779 780 780 781 782 783 784 786 787
754 754 755 755 755 755 755 756 757 759 761 763 764 764 764 765 766 766 766 766 767 768 769 770 770 770 771 773 774 774 774 775 776 777 777 778 779 780 781 782 784 786
752 752 753 753 753 753 754 754 755 756 758 759 760 760 761 762 763 763 763 763 764 765 766 766 766 767 768 770 771 771 772 772 773 774 775 776 777 778 779 781 782 784
750 750 750 750 750 751 752 752 753 754 755 756 756 757 758 758 760 760 760 761 762 762 763 763 763 764 766 768 768 769 770 770 771 771 772 773 775 776 777 779 780 782
747 747 747 746 746 747 747 748 750 751 751 752 752 753 754 755 756 756 757 758 759 759 760 760 761 762 764 765 766 766 767 768 768 769 770 771 772 774 775 776 778 780
745 745 744 743 743 744 744 745 746 746 747 747 748 749 751 751 752 752 753 754 755 756 756 757 758 759 761 762 763 764 765 765 766 767 768 769 770 771 773 774 776 778
742 742 741 741 742 742 743 743 743 743 744 745 746 747 748 748 749 749 750 751 751 752 753 753 755 756 757 759 760 761 762 763 764 764 766 767 768 769 770 772 774 776
740 739 739 739 740 741 741 741 741 741 742 743 744 744 745 745 746 746 747 747 748 749 749 750 751 753 754 756 757 758 760 761 762 763 764 765 766 767 769 771 773 775
738 737 737 737 737 738 738 738 738 738 739 740 741 741 742 743 743 744 744 745 746 747 747 747 748 750 751 752 754 756 757 759 760 761 762 764 764 766 768 769 771 773
736 735 735 734 735 735 734 734 734 735 735 736 737 738 738 739 740 741 742 743 744 744 744 745 746 747 748 750 751 753 755 756 758 759 760 761 763 764 766 767 769 771
734 733 733 732 732 731 731 731 731 731 732 733 733 734 735 736 737 738 739 740 741 742 742 743 744 745 746 747 749 751 752 754 756 758 759 760 762 763 765 766 768 770
732 731 730 730 729 729 729 729 729 729 730 731 731 732 733 734 735 736 737 738 738 739 741 741 742 743 744 745 747 749 751 752 754 756 758 759 761 762 764 766 767 770
730 729 728 727 727 727 727 728 728 728 729 729 730 731 731 732 733 734 735 735 736 737 738 739 740 741 742 744 745 747 748 750 752 754 755 758 759 761 763 766 768 770
Wind_Speed
36 36 37 38 39 39 38 38 37 37 37 37 37 38 37 37 37 36 36 36 35 37 40 39 37 37 38 39 39 40 40 40 43 45 41 41 43 44 44 43 42 39
35 36 37 37 38 38 37 37 37 37 37 37 37 37 37 36 35 34 34 34 32 33 38 39 37 36 36 38 40 40 38 38 40 41 40 40 41 42 44 43 42 40
35 36 36 37 37 37 37 36 36 36 36 36 36 35 35 34 33 33 32 32 31 30 33 37 38 36 35 35 37 38 38 39 40 40 39 39 39 41 43 43 42 41
35 36 36 36 36 36 35 35 35 36 35 35 35 34 33 32 32 32 31 31 31 28 29 33 37 38 36 35 35 36 38 39 39 39 38 38 39 41 42 42 41 41
35 35 35 35 35 35 34 34 35 35 35 35 34 32 31 31 30 31 30 31 30 28 28 31 35 37 37 35 35 36 37 38 38 38 37 37 39 40 41 41 41 40
34 34 34 34 34 34 34 35 35 34 34 34 33 32 31 30 30 30 30 31 30 28 29 31 33 37 38 37 36 37 37 38 38 37 36 37 38 38 38 39 39 39
34 34 33 33 33 34 34 35 34 34 33 32 32 31 30 29 29 29 29 30 29 28 29 32 33 35 37 38 38 38 37 36 36 35 35 36 36 35 36 37 38 38
33 33 33 33 34 34 35 35 35 34 32 32 31 31 30 29 28 28 28 29 30 30 29 30 31 33 35 36 37 37 37 36 34 34 35 35 34 34 35 35 35 35
32 33 33 33 34 35 36 35 35 33 32 31 31 30 29 29 28 27 27 28 30 31 30 30 31 32 32 34 35 37 37 37 35 35 34 34 34 34 34 34 33 32
32 32 33 34 35 36 36 35 34 32 31 31 31 30 29 29 28 27 27 28 30 30 29 30 32 32 32 33 33 34 36 37 37 36 36 35 35 34 34 33 32 32
32 32 33 35 36 37 37 35 34 32 31 31 31 31 30 29 28 28 28 29 30 31 30 31 33 32 32 32 32 32 34 35 36 36 36 36 35 34 33 33 32 32
32 32 33 36 37 37 37 36 34 33 32 32 32 31 31 30 30 29 29 30 31 31 31 32 33 33 33 32 32 31 32 33 33 34 34 34 34 33 32 32 32 31
34 34 34 35 36 37 37 36 35 34 33 33 32 32 32 31 31 30 29 29 31 32 32 32 33 33 33 32 31 31 30 31 31 31 32 32 31 30 30 30 30 31
36 37 37 36 36 36 37 37 36 35 34 32 32 32 33 33 32 31 29 29 30 31 31 31 32 32 32 32 31 30 29 30 30 31 31 30 29 29 29 29 29 30
37 38 38 37 36 36 36 37 36 34 33 32 32 33 33 33 32 30 29 29 29 30 30 30 32 32 32 32 31 30 29 29 29 30 30 29 29 28 28 28 28 29
37 37 36 35 34 34 35 34 33 33 32 32 33 33 33 33 32 31 30 30 29 30 31 32 33 33 32 31 30 29 28 28 28 29 28 28 28 28 27 27 27 28
36 36 34 34 33 33 33 33 32 32 32 33 33 34 34 33 32 32 32 31 29 30 31 32 33 32 31 30 29 28 27 27 27 27 27 28 28 28 28 28 28 28
35 34 33 34 34 33 33 33 32 32 33 33 34 35 35 34 33 33 33 31 30 30 31 32 32 31 30 30 28 27 27 26 26 27 27 28 29 29 28 29 29 28
33 33 33 34 34 34 32 31 31 32 34 34 35 35 34 33 33 33 32 32 31 32 32 32 32 30 29 29 28 27 27 26 26 27 28 29 29 29 29 29 29 29
31 31 33 33 32 31 30 29 31 32 33 33 33 33 33 33 33 32 32 32 32 32 32 31 31 30 29 28 28 27 26 26 26 26 27 28 29 29 29 29 30 30
29 30 31 31 30 29 28 29 30 31 31 31 31 32 33 33 32 32 32 32 32 32 31 30 30 29 28 28 27 26 25 25 26 26 27 28 28 28 29 29 29 30
27 28 29 29 28 28 28 29 30 30 30 30 30 31 32 32 32 32 32 32 31 31 31 30 30 28 27 27 25 25 25 25 26 26 26 27 28 27 28 29 30 31
27 26 27 27 27 27 28 30 30 30 30 30 30 31 31 31 31 31 31 31 31 31 30 29 28 27 26 25 23 24 24 25 26 27 27 27 27 27 28 29 30 31
27 26 27 27 27 28 29 30 29 30 30 30 30 31 31 31 31 30 29 29 30 30 29 28 27 26 24 22 22 23 25 27 28 27 26 26 26 26 27 28 29 31
26 26 26 26 27 28 29 29 28 28 28 28 29 29 30 30 29 28 28 28 28 28 27 26 25 24 22 20 21 23 26 28 28 27 26 25 26 25 26 27 29 31
26 26 26 27 27 28 27 27 27 27 26 27 27 28 27 27 26 26 26 26 26 25 25 24 23 22 20 20 20 23 28 29 29 28 27 26 26 26 25 26 28 31
Wind_Direction
237 237 238 239 240 241 241 242 242 242 243 244 245 247 247 249 249 250 250 250 248 243 238 239 237 233 229 229 232 230 225 224 223 224 226 227 227 228 229 230 229 227
238 239 239 240 241 242 243 244 245 246 247 248 249 250 251 252 252 253 253 252 250 246 241 240 240 237 235 235 234 231 229 229 228 228 229 229 231 230 230 230 229 228
240 240 240 241 242 243 245 246 247 248 249 251 251 251 252 252 253 254 254 253 252 252 247 243 244 243 239 236 234 234 237 236 233 233 232 233 235 232 230 229 228 227
242 242 242 243 244 246 247 247 248 248 249 250 251 252 253 253 254 253 253 252 250 252 253 247 246 246 244 241 239 240 241 239 238 239 238 237 237 233 230 229 227 227
245 245 245 246 247 247 248 247 248 249 249 250 251 252 252 252 253 251 251 250 247 249 255 250 246 246 245 243 242 241 241 241 242 242 240 238 236 232 230 228 227 228
247 247 247 248 249 249 249 248 249 249 249 251 252 252 252 251 250 249 249 249 246 248 255 252 246 244 244 244 243 242 241 241 242 240 237 236 234 231 229 228 228 229
249 249 249 250 250 250 250 251 251 250 250 252 252 252 251 250 249 247 248 248 246 250 257 255 249 244 243 243 242 241 240 240 240 237 235 234 233 232 231 231 231 230
252 252 251 251 251 250 251 252 252 251 251 251 251 250 250 250 249 248 248 247 246 250 255 256 253 247 244 242 240 239 238 237 237 234 233 233 232 232 232 232 232 230
254 254 253 252 251 251 251 252 252 252 251 250 249 249 249 248 248 249 249 248 248 249 251 254 254 249 245 243 241 239 237 235 235 234 233 233 232 232 233 232 231 229
255 255 254 253 253 252 253 252 252 252 251 250 249 248 248 247 247 248 249 249 249 247 247 252 253 250 246 245 243 240 238 236 236 235 235 235 234 235 235 233 231 228
254 254 254 254 254 254 254 253 253 252 251 250 249 247 247 246 245 245 247 248 247 247 248 251 253 250 247 246 244 242 240 237 236 236 236 236 236 236 235 234 232 229
251 252 254 255 255 255 255 254 253 252 251 249 248 247 247 245 243 243 246 247 247 247 248 250 252 251 248 247 246 243 240 238 237 237 236 236 235 234 234 234 232 229
253 253 255 257 257 256 255 254 253 251 250 248 247 246 246 244 242 242 244 245 246 246 247 248 249 249 248 247 245 242 240 237 235 235 234 233 233 232 233 232 230 228
257 257 256 257 257 255 253 252 251 249 248 247 246 245 245 244 243 243 243 243 243 244 246 247 246 246 246 244 243 241 239 237 235 233 232 231 230 231 230 229 228 226
261 258 256 256 255 252 250 249 247 247 246 245 244 244 244 244 244 243 242 241 241 241 243 245 245 245 245 243 242 240 237 236 234 232 231 229 228 226 225 225 224 223
261 259 257 257 256 253 250 248 247 246 245 243 243 243 243 243 242 241 240 239 240 240 240 241 243 244 245 245 243 241 238 235 232 230 230 228 225 222 220 220 220 220
262 260 258 258 258 256 253 251 249 247 244 243 242 242 241 241 240 239 239 237 239 241 240 241 242 243 245 244 242 240 238 234 232 230 228 225 223 221 218 216 215 215
263 261 259 258 257 256 254 252 248 245 243 242 240 239 238 237 237 238 237 236 237 240 240 241 243 245 244 242 239 238 237 235 233 231 226 222 220 219 217 214 210 208
265 262 260 259 258 256 254 250 246 243 241 240 239 238 237 235 236 236 236 235 236 237 237 239 241 243 243 241 239 237 236 234 232 229 225 220 218 216 214 211 206 202
268 263 261 261 259 257 254 250 246 244 242 240 238 236 234 234 234 234 234 234 234 235 236 238 240 241 241 240 239 237 235 231 229 226 223 220 218 215 211 207 204 199
270 265 263 262 260 258 254 250 247 244 242 240 237 236 235 235 235 234 233 233 233 234 235 236 238 238 239 239 237 235 231 227 225 223 221 219 217 214 211 207 204 199
276 270 266 263 259 256 252 249 246 244 241 239 237 236 235 235 235 234 233 233 233 233 232 233 235 236 236 237 234 230 226 222 220 219 217 215 213 211 209 206 202 197
284 276 270 265 259 254 250 248 246 243 241 237 234 233 231 231 232 232 232 233 232 231 231 232 235 236 235 234 228 222 218 215 214 214 212 210 209 207 204 200 197 194
289 282 275 268 261 255 252 250 246 243 240 236 233 231 230 230 231 230 230 231 231 231 231 233 236 236 234 229 221 214 212 210 209 207 205 204 202 199 198 196 193 192
288 283 277 270 264 259 255 252 248 244 240 236 233 231 231 230 228 226 227 228 229 230 231 233 235 235 231 225 217 210 209 209 207 202 199 197 194 190 189 190 188 187
286 281 276 270 266 262 259 254 249 245 239 234 230 228 227 226 224 223 224 226 227 228 228 230 232 231 226 220 213 209 210 210 206 201 197 191 187 183 181 180 180 180